GFSSE_prec_cthk_336.txt.gz
RH
69 72 75 74 73 76 73 72 78 74 70 71 72 73 69 67 64 66 62 62 62 57 66 61 55 55 56 60 52 53 54 40 50 60 64 50 51 48 46 48 52 51 51
66 70 73 72 75 76 75 72 78 87 83 78 75 70 65 63 60 63 55 52 50 53 60 45 40 41 50 54 56 59 62 48 47 61 59 48 47 55 50 52 50 55 59
61 65 68 72 74 75 78 73 76 77 80 76 74 69 68 61 60 54 48 44 40 57 39 37 39 46 53 54 55 61 67 67 54 52 54 58 57 56 55 53 53 53 54
60 63 65 75 81 80 79 77 73 74 69 73 70 67 57 53 52 47 46 37 37 39 41 44 53 54 53 59 69 75 70 62 57 53 56 57 53 50 53 61 51 53 56
60 62 66 78 83 82 81 77 74 72 64 63 63 60 54 51 47 45 48 44 45 47 50 49 49 54 61 69 70 70 66 57 55 58 51 54 57 53 53 61 46 50 56
67 65 68 76 83 82 79 75 68 63 60 57 55 56 56 49 48 47 49 52 48 49 50 51 60 69 73 74 69 57 53 52 52 52 53 61 55 56 62 59 50 46 54
69 68 71 74 76 73 71 65 63 59 56 57 58 52 49 50 52 57 56 52 50 53 52 62 70 68 65 63 63 59 55 50 47 48 54 59 53 55 57 54 53 53 54
67 69 71 73 73 72 67 61 60 57 55 57 54 47 47 55 61 57 57 56 54 52 51 57 60 55 59 66 65 67 62 58 56 53 52 51 52 52 54 58 56 56 63
67 68 69 70 70 69 62 58 59 62 53 53 50 47 51 58 64 61 62 62 57 53 52 55 57 56 61 62 72 66 64 60 56 53 53 56 55 54 56 57 57 58 64
64 72 73 70 64 61 57 57 58 57 55 57 57 54 58 61 66 61 59 57 58 56 57 64 62 64 72 67 69 73 68 64 61 55 49 50 51 54 57 58 58 59 61
64 65 68 69 65 59 57 56 59 61 59 61 59 64 71 67 66 64 57 53 55 61 63 63 70 73 79 81 71 75 78 74 69 65 56 48 46 49 56 62 60 61 64
61 65 62 59 57 56 55 56 58 59 58 60 63 65 70 69 69 67 60 59 60 62 65 64 65 71 75 78 78 80 74 77 76 77 61 61 52 49 57 60 65 66 63
47 52 59 56 54 52 53 53 52 55 60 60 63 67 66 65 67 69 66 68 70 67 67 70 69 72 75 77 80 80 78 78 82 80 77 67 65 58 54 56 60 62 60
55 53 53 55 58 58 60 53 51 51 58 64 66 65 64 63 65 66 64 69 74 70 68 72 74 76 80 80 85 86 80 80 83 86 86 82 76 71 69 60 61 59 61
58 54 59 62 61 61 60 58 59 59 59 66 71 68 71 62 62 61 60 63 68 74 75 79 84 80 80 82 86 89 87 85 88 88 89 90 85 82 80 76 66 66 65
60 54 53 56 57 62 66 65 64 68 67 71 75 74 67 64 64 64 63 64 68 73 76 79 83 83 83 83 84 87 86 86 90 91 89 90 91 87 83 82 82 75 71
59 54 52 53 54 60 64 70 71 70 69 69 70 72 69 72 71 72 68 69 70 72 72 76 81 89 86 86 87 89 91 89 89 90 91 88 90 93 94 90 86 85 80
58 58 58 56 54 57 62 67 70 72 71 67 66 65 69 70 70 72 71 73 73 75 77 79 80 87 87 91 89 89 89 89 89 89 90 90 91 92 96 97 92 90 89
53 53 55 56 56 57 58 66 69 71 73 71 69 70 70 68 68 67 72 76 77 76 81 80 82 82 85 90 91 88 87 87 88 88 89 90 90 91 93 95 95 96 94
52 52 50 50 54 57 55 55 60 63 66 70 69 69 69 72 72 69 71 76 78 78 79 79 79 80 79 88 91 90 87 85 86 85 85 86 89 92 93 95 94 93 96
40 45 53 52 50 49 50 51 51 54 59 62 64 67 66 67 72 72 72 73 74 77 77 76 76 79 76 77 79 84 82 82 82 83 82 84 87 89 90 93 94 94 95
46 39 34 36 43 50 53 53 52 54 56 59 60 60 64 66 69 69 71 74 71 71 68 70 72 73 71 74 76 80 79 79 79 81 81 83 83 87 88 89 90 91 94
38 44 46 43 38 36 37 39 43 45 48 54 60 62 59 64 66 65 65 64 63 61 62 66 71 69 68 67 72 74 76 77 77 78 78 82 82 86 87 86 87 87 88
37 38 43 44 42 42 43 46 47 46 47 51 58 66 67 59 56 55 54 54 52 53 54 56 58 59 60 61 67 70 70 69 66 69 73 79 82 87 86 87 87 89 90
37 40 41 41 41 44 45 45 47 50 51 51 50 58 65 62 59 57 57 57 57 56 55 52 51 51 51 51 56 62 63 64 65 65 64 71 81 88 86 87 81 81 83
43 39 43 44 44 43 45 47 46 49 54 57 58 60 58 61 58 61 60 65 69 83 80 73 68 68 63 55 54 56 61 65 62 62 64 73 82 82 84 86 76 76 76

GFSSE_prec_cthk_339.txt.gz
RH
73 74 73 70 69 70 71 71 70 72 73 72 73 70 68 64 64 60 60 61 58 67 63 60 58 55 58 50 55 41 51 54 54 56 51 50 48 44 50 52 53 57 56
70 73 71 72 73 70 71 79 74 71 74 75 69 68 65 61 60 55 54 52 55 54 47 42 46 53 51 53 56 51 47 57 62 51 47 47 49 49 52 48 54 56 49
68 70 70 72 73 72 69 77 86 79 75 75 74 68 61 58 56 49 45 45 55 42 35 35 43 51 55 55 62 65 54 58 59 56 53 60 55 53 58 50 56 57 55
64 65 72 76 76 75 71 73 76 70 72 76 74 65 54 55 50 46 41 41 42 38 41 52 54 53 60 68 71 70 62 54 55 58 61 59 55 53 58 53 53 56 57
60 65 77 80 78 76 74 73 74 67 70 71 69 58 54 54 47 48 41 46 47 46 51 52 55 60 68 72 72 69 61 55 56 55 59 59 57 54 59 46 54 57 59
63 67 80 81 79 77 76 75 68 65 65 59 58 58 57 53 53 54 49 48 55 52 50 58 66 73 74 67 62 57 56 55 53 53 58 60 59 60 60 51 47 58 59
68 73 77 80 78 77 70 66 69 66 63 58 59 56 54 54 58 53 58 50 54 52 59 71 71 68 65 65 62 55 50 46 52 59 61 58 59 61 62 52 50 56 58
69 74 72 74 73 67 62 66 63 59 64 62 63 55 55 55 58 61 56 55 61 55 64 67 61 64 67 66 68 67 61 59 56 53 53 57 58 60 57 56 55 58 57
71 72 71 69 70 64 59 59 59 56 54 58 52 51 60 66 63 63 66 62 60 57 62 66 68 74 71 70 69 66 66 63 56 55 56 61 55 56 61 58 58 61 64
69 68 68 66 63 60 57 58 57 55 61 58 53 55 62 71 64 66 68 66 60 61 67 70 72 79 81 80 73 78 74 68 61 53 52 55 59 60 64 64 64 62 72
67 66 64 61 59 58 57 58 58 57 60 61 60 65 66 70 69 62 60 61 65 67 66 70 72 78 82 85 77 83 85 79 75 65 59 53 53 56 62 66 61 64 66
64 65 61 60 59 56 58 58 60 63 62 62 68 71 71 69 68 64 62 62 64 67 65 68 72 76 80 82 85 84 78 80 82 74 70 62 59 54 58 63 69 70 65
62 56 53 53 54 55 54 55 59 61 62 63 66 69 71 72 73 71 70 72 72 73 74 73 72 77 79 84 86 87 87 79 86 85 82 73 68 63 54 59 66 64 68
46 51 54 52 52 52 53 53 53 57 64 63 63 66 69 70 68 70 74 78 78 76 76 79 76 80 84 88 90 94 89 88 87 91 93 88 79 76 71 60 59 61 61
52 54 55 56 58 59 57 54 56 56 60 66 66 66 70 67 62 65 69 74 78 81 83 86 86 85 84 85 88 88 91 89 89 94 95 93 91 87 83 75 69 64 64
56 53 56 60 62 65 63 61 63 64 63 70 74 72 70 69 64 63 65 72 76 79 82 84 87 87 88 87 89 91 93 92 92 91 94 95 93 92 87 80 77 76 72
57 54 55 54 57 63 66 67 65 67 70 74 71 71 69 72 72 69 69 74 78 77 75 80 85 88 91 91 91 93 93 94 92 91 90 95 96 94 96 88 81 83 80
56 53 53 56 59 62 64 70 71 70 69 69 70 68 71 70 72 72 74 75 76 78 78 81 86 85 91 93 95 96 93 92 91 90 90 91 92 91 92 96 90 85 87
55 57 56 55 56 58 62 64 67 70 70 70 68 68 68 67 67 68 71 76 78 77 77 79 79 82 82 88 94 92 91 92 92 91 90 90 93 94 93 94 96 93 90
48 49 51 53 54 55 58 61 62 65 68 68 69 70 70 70 71 70 70 74 77 79 78 76 77 78 83 82 84 87 89 89 87 86 86 89 89 92 93 96 97 95 96
45 50 50 48 47 50 51 51 51 51 55 60 63 66 68 66 69 72 72 69 74 76 76 73 72 75 80 75 75 77 80 80 81 83 81 84 87 90 92 93 96 97 99
37 36 39 44 46 49 50 49 49 49 50 53 56 58 62 64 65 68 69 70 71 74 68 64 72 74 72 72 73 74 79 78 78 79 81 81 84 87 89 89 90 92 93
38 42 38 36 37 38 42 44 44 46 49 52 55 59 58 58 64 63 65 64 63 58 57 63 63 64 63 62 64 69 77 79 75 73 76 78 82 83 88 89 88 88 90
37 39 42 43 43 42 43 43 44 45 46 49 54 60 65 58 56 55 53 53 53 52 51 53 53 52 53 53 57 57 65 67 68 66 64 72 76 81 88 91 91 89 90
38 39 39 40 41 42 43 46 48 47 46 48 50 52 58 58 59 58 55 55 57 56 58 64 65 61 58 54 52 56 58 63 64 66 63 64 70 78 86 89 90 90 82
40 38 40 41 40 42 41 43 42 43 44 46 48 49 51 51 52 60 64 64 63 67 74 82 81 77 77 80 75 60 56 62 66 68 65 64 70 76 85 83 86 82 76

GFSSE_prec_cthk_342.txt.gz
RH
76 72 67 69 70 73 72 76 73 75 74 71 71 71 67 68 65 69 66 64 72 74 73 65 62 57 53 51 48 56 54 53 57 56 52 51 47 52 51 60 62 55 45
77 76 71 72 71 72 71 70 73 73 73 71 70 68 63 62 64 62 58 59 59 55 53 60 59 53 55 51 50 62 61 60 56 55 52 49 51 54 51 57 61 50 56
76 75 76 75 70 74 80 79 76 76 79 80 77 67 63 69 58 51 53 58 49 41 44 55 56 65 62 68 56 60 65 65 55 55 62 59 60 53 51 57 58 52 57
74 77 79 78 74 70 78 80 74 74 78 80 74 62 62 59 52 50 51 48 41 47 52 55 58 64 69 71 73 61 61 62 62 66 69 69 64 59 52 58 57 57 58
74 84 81 78 77 74 76 80 72 72 76 75 65 64 63 54 53 45 47 50 46 57 58 57 63 70 75 76 73 66 59 56 63 69 72 69 66 62 54 58 58 59 63
73 89 81 81 80 75 75 74 69 69 67 64 58 64 57 56 57 47 49 63 57 54 59 66 72 75 71 68 62 62 59 53 56 65 69 63 69 64 49 54 60 65 61
79 88 84 80 80 77 72 70 68 64 63 61 61 61 57 51 51 59 51 59 54 62 71 73 73 71 71 65 61 53 47 53 68 68 68 70 66 64 59 49 58 60 64
84 87 83 82 79 70 67 70 63 62 67 63 63 57 53 66 63 61 60 60 55 66 69 66 69 74 73 71 72 63 59 56 59 64 66 66 63 61 57 54 55 59 60
81 79 75 76 70 65 64 62 63 66 66 58 53 61 70 63 64 64 65 65 60 68 71 69 80 78 80 72 74 67 65 60 61 62 67 67 57 61 60 58 59 62 57
77 76 75 74 70 65 62 63 60 55 54 53 52 61 68 70 73 75 69 66 62 63 68 70 77 81 87 81 76 75 75 72 67 62 64 61 60 61 64 71 61 64 70
76 74 71 68 67 62 59 57 60 60 59 57 62 65 77 78 76 69 69 70 69 68 68 68 75 81 85 85 80 81 83 85 82 76 73 58 58 64 65 66 66 65 67
71 70 67 66 65 62 61 61 67 66 69 72 76 74 73 73 72 68 62 61 63 66 65 69 76 76 85 86 86 82 84 83 88 80 79 65 70 65 62 65 68 70 68
64 65 63 62 61 64 63 63 67 66 68 66 69 76 77 77 78 76 75 73 71 70 80 70 73 77 80 88 85 88 90 86 85 86 83 80 73 73 67 61 66 66 66
61 58 57 57 57 59 58 62 65 69 69 70 71 73 74 76 75 73 81 82 79 77 74 81 84 84 83 87 88 91 90 92 93 90 92 91 85 81 79 68 66 68 64
50 53 56 54 53 55 52 55 60 61 66 69 66 70 74 70 70 71 75 78 80 82 85 81 87 90 88 88 88 88 90 91 94 93 94 96 95 87 86 80 73 71 68
53 56 57 60 58 60 60 56 60 61 66 68 70 72 78 72 64 65 68 76 77 80 84 85 84 84 90 86 86 89 89 92 93 90 90 93 95 94 92 88 82 79 71
56 53 54 57 60 61 62 60 64 65 70 70 67 66 72 72 73 66 70 73 79 77 74 78 79 82 89 89 90 89 90 89 90 89 88 88 93 92 94 93 87 82 83
53 52 52 54 56 59 63 64 65 64 68 71 70 65 65 66 67 71 73 74 76 76 79 81 84 87 86 89 92 89 87 88 88 87 87 87 93 93 93 95 91 88 81
53 52 51 51 54 58 59 64 65 65 64 64 64 64 62 60 61 78 77 75 75 77 79 81 80 83 86 88 84 86 89 90 90 87 86 88 89 89 93 94 95 97 90
49 52 53 52 52 53 59 60 64 68 68 67 67 69 67 66 65 65 69 70 78 79 83 83 79 81 84 85 78 77 80 83 85 87 84 83 84 86 88 91 95 95 96
47 48 48 47 49 50 52 55 59 60 61 62 63 60 59 60 60 63 67 70 76 76 76 74 72 72 75 76 71 77 79 83 81 83 84 83 81 83 85 89 88 94 95
40 42 47 46 45 44 46 48 50 51 53 54 55 54 54 58 60 61 62 66 71 74 71 68 66 68 76 75 73 74 77 81 81 86 81 79 79 83 86 88 89 87 89
36 38 38 35 37 40 44 48 49 50 51 51 52 54 54 51 54 55 56 61 61 60 59 56 60 60 60 61 60 63 66 75 80 77 75 74 77 81 87 85 92 93 89
35 37 37 34 34 35 38 43 42 46 49 51 55 59 60 55 51 51 49 47 46 54 53 52 53 53 56 54 53 54 56 58 68 68 76 73 72 75 82 90 91 90 94
37 40 42 39 37 37 37 38 42 45 47 47 48 47 52 52 46 48 50 49 50 56 62 59 72 80 80 80 76 76 73 65 58 67 69 72 72 70 79 88 89 84 86
41 36 36 38 39 38 40 41 41 43 44 47 48 48 48 50 49 46 46 54 60 63 63 67 66 78 82 84 83 80 82 84 80 72 70 73 74 74 74 84 90 87 86

GFSSE_prec_cthk_345.txt.gz
RH
87 80 76 76 76 76 74 72 69 72 72 72 72 68 67 67 68 67 66 74 78 79 76 66 57 55 46 54 52 62 58 60 56 52 47 46 48 56 72 69 54 51 49
74 67 66 70 74 73 75 75 75 71 71 69 67 62 63 65 66 62 59 65 63 64 65 61 55 57 46 64 61 60 57 52 53 53 51 54 54 55 62 68 61 54 54
76 70 69 70 73 72 71 71 71 75 75 73 68 67 68 60 59 58 58 51 47 53 60 56 68 65 58 58 65 66 60 53 57 60 58 64 56 53 63 60 54 61 55
76 78 75 68 74 78 81 75 76 80 78 73 62 62 57 53 54 57 51 41 42 49 57 59 62 66 67 62 66 62 61 66 68 78 79 71 64 54 58 57 56 58 60
77 80 74 73 71 77 78 73 73 79 75 68 62 63 53 54 50 45 43 47 60 63 56 63 69 73 73 71 65 60 59 67 73 80 68 70 70 59 57 57 58 59 66
81 84 76 75 73 77 76 71 70 70 66 61 61 54 51 54 44 50 58 56 56 59 69 70 71 71 67 65 64 61 55 61 68 71 72 70 71 51 56 63 68 69 65
85 83 77 77 74 72 72 70 65 63 59 61 59 56 52 50 49 54 63 55 58 68 75 78 75 73 64 64 58 52 53 64 70 70 79 70 61 60 48 56 62 61 65
83 86 79 75 71 69 69 63 62 63 60 62 58 57 59 61 61 55 57 54 69 71 71 74 71 73 73 70 67 58 56 59 66 72 70 69 65 61 55 51 61 60 64
87 85 82 76 66 66 65 58 62 65 64 55 56 57 61 62 58 58 63 61 72 71 68 77 75 79 77 72 69 67 63 64 71 69 75 64 60 58 57 56 58 58 59
73 78 78 70 70 63 64 62 59 59 52 50 61 67 68 69 69 66 65 64 64 69 71 73 77 80 78 74 72 74 76 75 72 68 73 69 61 61 65 60 60 65 60
77 76 70 70 68 66 61 58 59 57 53 55 60 70 77 76 70 77 71 64 63 64 64 70 72 75 76 78 77 75 81 88 85 85 78 64 65 65 67 67 66 66 77
75 74 72 72 66 61 64 66 66 68 71 71 78 72 84 72 78 71 60 59 63 62 63 67 72 74 97 85 80 80 80 83 81 85 79 68 70 73 68 74 68 67 66
70 69 65 67 66 65 66 68 72 73 70 74 74 78 71 80 73 77 72 72 71 70 77 69 69 72 82 89 84 92 93 89 81 82 84 80 76 78 71 69 75 75 69
62 63 62 60 62 64 62 68 72 74 74 73 74 75 73 78 76 74 82 80 82 78 75 79 87 85 80 83 85 87 89 90 97 92 91 87 84 80 81 74 71 74 72
55 55 57 55 53 57 57 64 68 68 72 73 69 76 75 77 74 76 76 81 85 85 89 83 89 86 85 87 86 87 88 89 92 90 91 95 94 87 84 79 77 76 77
54 55 57 56 54 58 60 61 62 65 69 72 71 71 69 72 65 70 73 76 76 77 85 85 83 82 87 86 87 89 88 87 88 88 88 90 93 92 85 86 83 80 79
57 60 61 62 64 63 64 59 66 66 70 71 71 71 71 70 70 69 68 71 76 77 76 79 92 91 86 86 89 89 84 84 86 83 86 89 93 95 94 94 88 86 86
55 52 54 60 64 63 66 61 65 64 71 70 70 68 64 67 69 69 72 73 74 75 78 79 78 86 90 90 91 82 87 83 97 97 88 89 92 92 95 96 93 89 83
50 49 50 52 58 58 63 66 66 65 63 66 66 67 65 63 65 77 79 74 74 79 79 83 86 88 87 86 84 80 74 76 81 86 93 87 91 90 92 94 94 92 91
50 49 48 48 50 52 57 62 67 69 67 66 70 73 73 68 68 68 71 72 76 79 82 86 79 77 77 79 79 71 77 75 80 81 87 86 87 89 91 92 93 94 96
47 47 47 46 47 48 51 56 62 65 68 68 67 61 62 64 65 63 67 72 74 75 80 77 75 76 75 79 77 74 73 81 78 76 80 82 85 81 86 85 92 91 92
40 40 43 43 43 42 45 48 50 50 51 53 58 56 54 57 66 69 68 68 69 72 72 67 62 64 69 68 65 64 66 73 76 77 81 71 78 78 83 86 86 93 92
41 38 37 36 36 35 40 42 44 47 47 48 49 52 54 53 55 58 65 64 62 61 63 56 53 53 55 58 58 54 51 58 61 64 73 81 67 69 79 85 87 92 94
40 38 37 32 34 33 32 39 40 44 48 47 48 53 57 60 53 53 53 52 49 51 55 59 58 63 74 83 82 86 83 78 70 66 67 66 72 69 66 72 81 88 90
42 39 41 39 38 35 32 37 39 40 42 44 47 46 43 45 46 43 47 51 53 57 63 64 69 72 72 78 81 84 86 87 87 88 82 79 72 69 67 68 72 88 85
46 45 39 38 36 38 38 39 43 46 45 50 49 48 48 48 48 47 47 49 50 50 55 65 72 77 80 81 83 83 84 88 87 85 85 84 81 72 70 72 74 78 85